Showing default

GALAXY 35, 54741

Orbit data source: Space-Track

GALAXY 35, 54741 is a payload satellite owned by Intelsat SA (US) (US) in GEO that was launched on Tue, 13 Dec 2022 UTC via an ARIANE 5ECA+ launch vehicle from the French Guiana (FRGUI). Payload-class satellites include a variety of spacecraft equipped with specific instruments for various scientific and technological missions. These include communications satellites like Starlink; space stations such as the ISS; scientific satellites like the Hubble; Earth observation satellites from companies like Planet Labs, Umbra, and HawkEye 360; GPS; miniature CubeSats for education and research; and military/defense satellites.

Loading next visibility...
Identifier
54741, 2022-170A
Orbit
GEO
Last TLE update
16 hours ago
Origin
Manufacturer
Maxar Space Sol
Mission
Operational Commercial Communications
Bus & Motor
SSL-1300, R-4D
Mass
3,150 kg wet, ~2,000 kg dry
Launch date (UTC)
2022-12-13 (2 years ago)
Launch vehicle
ARIANE 5ECA+
Launch site
French Guiana (FRGUI)
Object type
Payload
Rocket body
Debris
Shape & HBR
Box + 2 Pan, 12 m
Radar Cross Section
30.995 m², Large (>1 m²)

Expand to show TLE details & history

TLE from 16 hours ago
0 GALAXY 35
1 54741U 22170A   25132.86171236 -.00000146  00000-0  00000-0 0  9992
2 54741   0.0084  67.2380 0002134 346.9970  33.7496  1.00271906  8870
Epoch: 2025-05-12T20:40Z
Definitive object data (Epoch: 2025-05-12T20:40:51.947Z)
Latitude
-0.00076°
Longitude
-93.09964°
Altitude
35,778.532 km
Speed
3.075 km/s
True Right ascension
05h 51m 56s
True Declination
0° 00' 03"
Sunlit
Object was in daylight at TLE epoch
Visualization TLE readout
Latitude
-0.00784°
Longitude
150.62843°
Altitude
35,784.901 km
Speed
3.075 km/s
Apparent Right ascension
22h 13m 05s
Apparent Declination
-6° 13' 23"
Sunlit
Object is in daylight
Visualization observer readout
Local Sidereal Time
21:18:55
Azimuth
161.69° S
Elevation
42.2°
Doppler factor
1
Orbital elements
Apogee altitude
35,796.63 km
Perigee altitude
35,778.633 km
Semi-major axis
42,165.768 km
Eccentricity
0.0002134
Inclination
0.0084°
RAAN
67.238°
Arg. of periapsis
346.997°
True anomaly
33.76319°
Mean anomaly
33.7496°
Eccentric anomaly
33.75639°
Mean motion
0.25067 °/min
BSTAR
Unknown
Orbital period
1436.15 mins
Loading historical data...
54741 neighbors
Loading maneuver chart data...
Loading SW <> Apogee altitude chart data...
Loading historical data...
Loading historical data...
Loading historical data...
Loading historical data...
Loading historical data...
Loading historical data...
Loading historical data...
Other satellites on launch #170 in the year 2022 (2022-12-13 UTC)

GALAXY 35 Visibility forecast

Observer location: undefined°, undefined°

Span
Click to sort rows by Start time (UTC) header in descending order
Start Az.
Max El. time (UTC)
Max El. Az.
Max El.
End time (UTC)
End Az.
1440 mins2025-05-13 12:53:16.097Z161.697° S2025-05-14 09:27:16.097Z161.685° S33.887°2025-05-14 12:53:16.097Z161.695° S
|